Location: Godiavel Galaoual
(15.2485°N, 12.6604°W)
Time: 03:33:06
(UTC+00:00)

N. Korean satellite - Pass Details

Date: 04 December 2021
Orbit: 447 x 491 km, 97.3° (Epoch: 22 January)

Event Time Altitude Azimuth Distance (km) Brightness Sun altitude
Rises 04:57:40 0° 43° (NE) 2,437 10.4 -29.2°
Reaches altitude 10° 05:01:05 10° 82° (E) 1,569 9.9 -28.4°
Maximum altitude 05:02:02 11° 98° (E) 1,514 10.0 -28.2°
Drops below altitude 10° 05:02:59 10° 114° (ESE) 1,572 10.1 -28.0°
Sets 05:06:24 0° 153° (SSE) 2,451 10.8 -27.2°
